User: anonymous   Login
Location: Haliburton Scout Reserve
(45.0900°N, 78.3200°W)
Time: 04:38:29
(UTC-04:00)
Language:

CUBESAT XI-V - Orbit

View from above orbital plane
View from above orbital plane
View from above satellite
View from above satellite

Ground track
Ground track

The orbit data is extracted from the following two-line orbital elements,

1 28895U 05043F   22135.92438487  .00001302  00000-0  25556-3 0  9994
2 28895  98.1016 267.8141 0015552 241.2088 118.7553 14.64276520882657
Epoch (UTC): 15 May 2022 22:11:06
Eccentricity: 0.0015552
inclination: 98.1016°
perigee height: 668 km
apogee height: 690 km
right ascension of ascending node: 267.8141°
argument of perigee: 241.2088°
revolutions per day: 14.64276520
mean anomaly at epoch: 118.7553°
orbit number at epoch: 88265

The dashed part of the orbit path shows where the satellite is in the earth's shadow,  

DLR